"2010-08-31 00:00:00",118381,1.068,115.2,7.588,0.266,20.34,109.6066,23.88,24.81,22.06,0,111.3,13.13,24.72,77.2
"2010-08-31 00:00:30",118382,0.928,128.9,6.459,0.115,20.37,109.6069,23.88,24.79,21.79,0,111.3,13.13,24.72,90.9
"2010-08-31 00:01:00",118383,0.822,130.3,6.416,0.114,20.36,109.6327,23.95,24.82,21.47,0,111.3,13.13,24.79,92.3
"2010-08-31 00:01:30",118384,0.755,128.6,12.97,0.106,20.31,109.6329,23.95,24.84,21.93,0,111.3,13.12,24.79,90.6
"2010-08-31 00:02:00",118385,0.903,111.7,9.11,0.178,20.29,109.6329,23.95,24.84,22.17,0,111.3,13.12,24.79,73.7
"2010-08-31 00:02:30",118386,0.722,129.5,9.07,0.19,20.25,109.6326,23.95,24.83,22.17,0,111.3,13.12,24.79,91.5
"2010-08-31 00:03:00",118387,0.98,129.7,13.27,0.342,20.26,109.6329,23.95,24.82,22.09,0,111.3,13.11,24.79,91.7
"2010-08-31 00:03:30",118388,1.404,132.9,6.223,0.122,20.26,109.6329,23.95,24.82,21.98,0,111.3,13.11,24.79,94.9
"2010-08-31 00:04:00",118389,1.09,121.3,6.435,0.23,20.32,109.6329,23.95,24.83,21.94,0,111.3,13.11,24.79,83.3
"2010-08-31 00:04:30",118390,0.951,127.5,3.527,0.079,20.3,109.6329,23.95,24.81,21.91,0,111.3,13.11,24.79,89.5
"2010-08-31 00:05:00",118391,1.017,134.7,5.467,0.082,20.32,109.6329,23.95,24.8,21.85,0,111.3,13.11,24.79,96.7
"2010-08-31 00:05:30",118392,1.15,146.3,7.25,0.171,20.29,109.6329,23.95,24.82,21.68,0,111.3,13.11,24.79,108.3
"2010-08-31 00:06:00",118393,1.004,151.3,9.28,0.124,20.32,109.6329,23.95,24.83,21.72,0,111.3,13.11,24.79,113.3
"2010-08-31 00:06:30",118394,0.701,129.6,7.499,0.084,20.29,109.6329,23.95,24.82,21.74,0,111.3,13.11,24.79,91.6
"2010-08-31 00:07:00",118395,0.933,117.3,13.09,0.159,20.28,109.6329,23.95,24.82,21.8,0,111.3,13.11,24.79,79.3
"2010-08-31 00:07:30",118396,1.107,97.4,8.46,0.129,20.29,109.6313,23.95,24.83,22.04,0,111.3,13.11,24.78,59.4
"2010-08-31 00:08:00",118397,0.964,97.1,7.473,0.249,20.32,109.6286,23.94,24.83,22.24,0,111.3,13.12,24.78,59.1
"2010-08-31 00:08:30",118398,0.288,44.93,18.48,0.21,20.31,109.6255,23.93,24.81,22.56,0,111.3,13.12,24.77,6.9
"2010-08-31 00:09:00",118399,0.535,75.81,11.06,0.252,20.29,109.6262,23.93,24.83,22.87,0,111.3,13.12,24.77,37.8
"2010-08-31 00:09:30",118400,1.024,87.8,8.61,0.23,20.28,109.6233,23.93,24.81,23.28,0,111.3,13.11,24.76,49.8
"2010-08-31 00:10:00",118401,1.077,85.9,6.166,0.279,20.16,109.6081,23.89,24.8,23.71,0,111.3,13.11,24.72,47.9
"2010-08-31 00:10:30",118402,1.912,97.7,4.294,0.155,20.19,109.5766,23.81,24.77,23.09,0,111.3,13.11,24.64,59.7
"2010-08-31 00:11:00",118403,1.175,96,18.17,0.343,20.2,109.5652,23.78,24.75,23.38,0,111.3,13.11,24.61,58.0
"2010-08-31 00:11:30",118404,0.459,95.2,12.06,0.126,20.21,109.5416,23.72,24.72,23.47,0,111.3,13.11,24.55,57.2
"2010-08-31 00:12:00",118405,0.927,118.7,9.29,0.373,20.16,109.5292,23.69,24.7,23.4,0,111.3,13.11,24.52,80.7
"2010-08-31 00:12:30",118406,0.762,106.5,24.86,0.452,20.29,109.5292,23.69,24.69,23.13,0,111.3,13.11,24.52,68.5
"2010-08-31 00:13:00",118407,1.029,81.2,22.92,0.37,20.31,109.5317,23.69,24.66,23.14,0,111.3,13.11,24.53,43.2
"2010-08-31 00:13:30",118408,1.665,126.1,6.313,0.268,20.26,109.5373,23.71,24.66,22.83,0,111.3,13.11,24.54,88.1
"2010-08-31 00:14:00",118409,1.609,86.5,27.01,0.379,20.36,109.553,23.75,24.65,22.81,0,111.3,13.11,24.58,48.5
"2010-08-31 00:14:30",118410,2.457,75.95,5.665,0.286,20.34,109.5511,23.74,24.64,23.38,0,111.3,13.11,24.58,37.9
"2010-08-31 00:15:00",118411,2.301,81.6,5.969,0.269,20.39,109.5424,23.72,24.63,23.35,0,111.3,13.11,24.55,43.6
"2010-08-31 00:15:30",118412,2.057,99.3,6.649,0.391,20.48,109.537,23.71,24.63,23.38,0,111.3,13.11,24.54,61.3
"2010-08-31 00:16:00",118413,2.756,100.5,12.16,0.352,20.49,109.5365,23.7,24.61,23.27,0,111.3,13.11,24.54,62.5
"2010-08-31 00:16:30",118414,2.744,103.7,6.327,0.215,20.56,109.5368,23.7,24.6,23.31,0,111.3,13.11,24.54,65.7
"2010-08-31 00:17:00",118415,3.031,98.7,3.763,0.232,20.58,109.5396,23.71,24.61,23.18,0,111.3,13.11,24.55,60.7
"2010-08-31 00:17:30",118416,2.128,106.7,5.78,0.358,20.57,109.5432,23.72,24.59,23.29,0,111.3,13.11,24.56,68.7
"2010-08-31 00:18:00",118417,1.652,104.6,8.88,0.215,20.6,109.5393,23.71,24.6,23.22,0,111.3,13.11,24.55,66.6
"2010-08-31 00:18:30",118418,2.29,98.9,12.62,0.384,20.58,109.5396,23.71,24.6,22.99,0,111.3,13.11,24.55,60.9
"2010-08-31 00:19:00",118419,1.577,108.4,10,0.226,20.64,109.5485,23.73,24.59,22.83,0,111.3,13.11,24.57,70.4
"2010-08-31 00:19:30",118420,1.303,85.7,9.62,0.184,20.71,109.5595,23.76,24.62,22.83,0,111.3,13.1,24.60,47.7
"2010-08-31 00:20:00",118421,1.384,108.1,7.449,0.353,20.65,109.5623,23.77,24.61,22.77,0,111.3,13.1,24.60,70.1
"2010-08-31 00:20:30",118422,1.652,85.6,10.82,0.153,20.58,109.5623,23.77,24.61,22.82,0,111.3,13.1,24.60,47.6
"2010-08-31 00:21:00",118423,2.13,72.07,8.08,0.512,20.67,109.5623,23.77,24.62,22.7,0,111.3,13.1,24.60,34.1
"2010-08-31 00:21:30",118424,2.168,95.7,11.3,0.26,20.74,109.5623,23.77,24.64,22.62,0,111.3,13.1,24.60,57.7
"2010-08-31 00:22:00",118425,1.406,48.85,13.48,0.245,20.7,109.5642,23.78,24.64,22.56,0,111.3,13.1,24.61,10.8
"2010-08-31 00:22:30",118426,1.057,38.31,8.08,0.213,20.72,109.5926,23.85,24.65,22.49,0,111.3,13.1,24.68,0.3
"2010-08-31 00:23:00",118427,2.031,35.26,9.12,0.203,20.66,109.596,23.86,24.68,22.41,0,111.3,13.1,24.69,357.3
"2010-08-31 00:23:30",118428,1.414,58.61,7.834,0.218,20.76,109.596,23.86,24.69,22.36,0,111.3,13.1,24.69,20.6
"2010-08-31 00:24:00",118429,1.991,52.35,6.764,0.301,20.72,109.596,23.86,24.68,22.26,0,111.3,13.1,24.69,14.3
"2010-08-31 00:24:30",118430,2.581,50.22,3.314,0.104,20.74,109.596,23.86,24.7,22.09,0,111.3,13.1,24.69,12.2
"2010-08-31 00:25:00",118431,2.438,55.56,6.597,0.172,20.72,109.596,23.86,24.7,22.32,0,111.3,13.11,24.69,17.6
"2010-08-31 00:25:30",118432,2.644,47.57,5.48,0.347,20.79,109.596,23.86,24.7,22.55,0,111.3,13.11,24.69,9.6
"2010-08-31 00:26:00",118433,2.965,56.23,5.658,0.164,20.91,109.596,23.86,24.72,21.99,0,111.3,13.11,24.69,18.2
"2010-08-31 00:26:30",118434,1.986,56.24,13.05,0.562,20.94,109.596,23.86,24.72,22.05,0,111.3,13.11,24.69,18.2
"2010-08-31 00:27:00",118435,1.491,359.5,12.67,0.776,21.12,109.6178,23.91,24.72,22.35,0,111.3,13.11,24.75,321.5
"2010-08-31 00:27:30",118436,1.682,347.6,4.686,0.32,20.79,109.6296,23.94,24.74,22.56,0,111.3,13.11,24.78,309.6
"2010-08-31 00:28:00",118437,1.056,9.33,15.19,0.08,20.78,109.6296,23.94,24.75,22.63,0,111.3,13.11,24.78,331.3
"2010-08-31 00:28:30",118438,1.247,52.42,5.737,0.199,20.76,109.6296,23.94,24.76,22.41,0,111.3,13.11,24.78,14.4
"2010-08-31 00:29:00",118439,0.986,70.16,14.22,0.106,20.77,109.6296,23.94,24.76,22.4,0,111.3,13.11,24.78,32.2
"2010-08-31 00:29:30",118440,0.998,81.7,13.04,0.135,20.76,109.6296,23.94,24.78,22.29,0,111.3,13.11,24.78,43.7
"2010-08-31 00:30:00",118441,1.171,80.2,12.15,0.335,20.73,109.6181,23.91,24.77,22.39,0,111.3,13.11,24.75,42.2
"2010-08-31 00:30:30",118442,1.669,81.8,12.85,0.148,20.76,109.6033,23.88,24.76,22.5,0,111.3,13.11,24.71,43.8
"2010-08-31 00:31:00",118443,2.451,62.6,6.833,0.417,20.76,109.5965,23.86,24.75,22.56,0,111.3,13.11,24.69,24.6
"2010-08-31 00:31:30",118444,2.412,61.89,10.37,0.222,20.81,109.596,23.86,24.74,22.55,0,111.3,13.11,24.69,23.9
"2010-08-31 00:32:00",118445,1.526,59.79,10.13,0.221,20.8,109.596,23.86,24.75,22.57,0,111.3,13.1,24.69,21.8
"2010-08-31 00:32:30",118446,1.797,60.88,10.31,0.241,20.73,109.596,23.86,24.73,22.85,0,111.3,13.1,24.69,22.9
"2010-08-31 00:33:00",118447,3.294,46.34,9.26,0.972,20.75,109.5853,23.83,24.71,23.02,0,111.3,13.1,24.66,8.3
"2010-08-31 00:33:30",118448,3.298,46.97,2.604,0.17,20.77,109.5659,23.78,24.68,23.13,0,111.3,13.1,24.61,9.0
"2010-08-31 00:34:00",118449,2.846,43.74,2.809,0.165,20.8,109.5623,23.77,24.66,23.2,0,111.3,13.1,24.60,5.7
"2010-08-31 00:34:30",118450,2.322,32.96,9.11,0.32,20.9,109.5623,23.77,24.66,23.05,0,111.3,13.1,24.60,355.0
"2010-08-31 00:35:00",118451,2.272,36.18,5.821,0.206,20.86,109.5738,23.8,24.66,22.91,0,111.3,13.1,24.63,358.2
"2010-08-31 00:35:30",118452,2.101,42.52,2.227,0.154,20.86,109.5943,23.85,24.69,22.76,0,111.3,13.1,24.69,4.5
"2010-08-31 00:36:00",118453,2.009,50.26,3.427,0.156,20.92,109.596,23.86,24.68,22.71,0,111.3,13.1,24.69,12.3
"2010-08-31 00:36:30",118454,1.973,58.04,5.719,0.225,20.93,109.594,23.85,24.69,22.56,0,111.3,13.1,24.69,20.0
"2010-08-31 00:37:00",118455,3.037,52.39,4.422,0.363,20.85,109.5721,23.8,24.66,23,0,111.3,13.1,24.63,14.4
"2010-08-31 00:37:30",118456,3.101,48.65,2.803,0.18,20.94,109.5623,23.77,24.67,22.92,0,111.3,13.09,24.60,10.7
"2010-08-31 00:38:00",118457,3.393,51.34,5.9,0.333,21,109.5623,23.77,24.66,22.77,0,111.3,13.09,24.60,13.3
"2010-08-31 00:38:30",118458,2.825,52.76,8.83,0.387,21.01,109.5623,23.77,24.65,22.6,0,111.3,13.09,24.60,14.8
"2010-08-31 00:39:00",118459,2.819,53.23,3.428,0.265,20.99,109.5623,23.77,24.64,22.62,0,111.3,13.09,24.60,15.2
"2010-08-31 00:39:30",118460,2.946,53.97,2.924,0.152,20.98,109.5623,23.77,24.65,22.8,0,111.3,13.09,24.60,16.0
"2010-08-31 00:40:00",118461,3.129,51.63,1.977,0.298,21,109.5623,23.77,24.63,22.71,0,111.3,13.09,24.60,13.6
"2010-08-31 00:40:30",118462,2.739,47.54,4.835,0.133,21.02,109.5623,23.77,24.64,22.6,0,111.3,13.09,24.60,9.5
"2010-08-31 00:41:00",118463,2.903,46.16,2.273,0.114,21.01,109.5623,23.77,24.65,22.67,0,111.3,13.1,24.60,8.2
"2010-08-31 00:41:30",118464,2.493,51.12,2.18,0.217,21.02,109.5623,23.77,24.62,22.59,0,111.3,13.1,24.60,13.1
"2010-08-31 00:42:00",118465,2.809,46.58,1.349,0.097,21,109.5623,23.77,24.64,22.53,0,111.3,13.1,24.60,8.6
"2010-08-31 00:42:30",118466,2.661,47.33,1.566,0.06,21.05,109.5623,23.77,24.64,22.47,0,111.3,13.1,24.60,9.3
"2010-08-31 00:43:00",118467,2.662,39.39,3.268,0.228,21.06,109.5623,23.77,24.65,22.46,0,111.3,13.1,24.60,1.4
"2010-08-31 00:43:30",118468,2.482,39.87,1.848,0.113,21.04,109.5626,23.77,24.65,22.39,0,111.3,13.1,24.61,1.9
"2010-08-31 00:44:00",118469,2.878,42.46,7.069,0.324,21.04,109.568,23.78,24.67,22.51,0,111.3,13.1,24.62,4.5
"2010-08-31 00:44:30",118470,3.536,50.11,2.666,0.101,20.99,109.5623,23.77,24.65,22.81,0,111.3,13.1,24.60,12.1
"2010-08-31 00:45:00",118471,3.477,46.32,2.134,0.212,21.03,109.5623,23.77,24.65,22.73,0,111.3,13.1,24.60,8.3
"2010-08-31 00:45:30",118472,3.548,44.5,1.292,0.106,21.04,109.5548,23.75,24.64,22.73,0,111.3,13.1,24.59,6.5
"2010-08-31 00:46:00",118473,3.524,41.48,2.895,0.112,21.07,109.5425,23.72,24.63,22.96,0,111.3,13.1,24.55,3.5
"2010-08-31 00:46:30",118474,3.506,39.89,2.377,0.226,21.07,109.5411,23.72,24.64,23.05,0,111.3,13.1,24.55,1.9
"2010-08-31 00:47:00",118475,3.58,39.87,3.283,0.359,21.04,109.5379,23.71,24.62,23.15,0,111.3,13.1,24.54,1.9
"2010-08-31 00:47:30",118476,3.868,41.64,2.056,0.184,21.02,109.5381,23.71,24.61,23.38,0,111.3,13.1,24.54,3.6
"2010-08-31 00:48:00",118477,4.038,41.09,1.66,0.113,21.07,109.5415,23.72,24.58,23.25,0,111.3,13.1,24.55,3.1
"2010-08-31 00:48:30",118478,4.202,40.73,1.611,0.077,21.04,109.5427,23.72,24.57,23.23,0,111.3,13.1,24.55,2.7
"2010-08-31 00:49:00",118479,4.271,40.5,1.581,0.107,21.03,109.5285,23.68,24.58,23.81,0,111.3,13.1,24.52,2.5
"2010-08-31 00:49:30",118480,4.232,38.34,2.67,0.225,21.05,109.5206,23.66,24.54,23.6,0,111.3,13.1,24.50,0.3
"2010-08-31 00:50:00",118481,4.122,36.59,1.114,0.254,21.15,109.5211,23.66,24.54,23.27,0,111.3,13.11,24.50,358.6
"2010-08-31 00:50:30",118482,4.435,37.41,2.275,0.284,21.18,109.5208,23.66,24.53,23.55,0,111.3,13.11,24.50,359.4
"2010-08-31 00:51:00",118483,4.854,37.52,2.317,0.269,21.13,109.517,23.65,24.5,24.1,0,111.3,13.11,24.49,359.5
"2010-08-31 00:51:30",118484,4.915,39.63,2.571,0.192,21.13,109.4929,23.59,24.5,24.4,0,111.3,13.11,24.43,1.6
"2010-08-31 00:52:00",118485,5.354,39.71,2.073,0.212,21.11,109.4895,23.58,24.47,24.55,0,111.3,13.11,24.42,1.7
"2010-08-31 00:52:30",118486,5.306,38.38,0.829,0.188,21.09,109.4877,23.58,24.45,24.46,0,111.3,13.11,24.41,0.4
"2010-08-31 00:53:00",118487,5.273,37.85,1.684,0.159,21.14,109.47,23.53,24.42,24.39,0,111.3,13.1,24.37,359.9
"2010-08-31 00:53:30",118488,5.325,38.06,1.396,0.142,21.15,109.4635,23.52,24.42,24.4,0,111.3,13.1,24.35,0.1
"2010-08-31 00:54:00",118489,5.263,37.71,0.994,0.135,21.18,109.4642,23.52,24.41,24.4,0,111.3,13.1,24.35,359.7
"2010-08-31 00:54:30",118490,5.256,37.84,0.878,0.075,21.19,109.4645,23.52,24.4,24.3,0,111.3,13.1,24.35,359.8
"2010-08-31 00:55:00",118491,5.27,39.18,1.349,0.209,21.19,109.4645,23.52,24.38,24.14,0,111.3,13.1,24.35,1.2
"2010-08-31 00:55:30",118492,4.93,38.36,1.386,0.083,21.18,109.4645,23.52,24.39,24.21,0,111.3,13.1,24.35,0.4
"2010-08-31 00:56:00",118493,4.951,38.5,0.765,0.102,21.19,109.4645,23.52,24.39,24.21,0,111.2,13.1,24.35,0.5
"2010-08-31 00:56:30",118494,5.019,37.92,0.8,0.091,21.18,109.4645,23.52,24.39,24.14,0,111.2,13.1,24.35,359.9
"2010-08-31 00:57:00",118495,4.852,37.93,1.064,0.067,21.2,109.4645,23.52,24.37,24.03,0,111.2,13.1,24.35,359.9
"2010-08-31 00:57:30",118496,4.632,35.4,1.683,0.33,21.25,109.4645,23.52,24.37,23.91,0,111.2,13.1,24.35,357.4
"2010-08-31 00:58:00",118497,4.536,35.2,1.386,0.34,21.26,109.4645,23.52,24.38,23.83,0,111.2,13.1,24.35,357.2
"2010-08-31 00:58:30",118498,4.814,36.75,0.851,0.128,21.24,109.4645,23.52,24.39,23.75,0,111.2,13.11,24.35,358.8
"2010-08-31 00:59:00",118499,4.748,37.21,0.623,0.066,21.24,109.4645,23.52,24.4,23.73,0,111.2,13.11,24.35,359.2
"2010-08-31 00:59:30",118500,4.64,36.84,0.623,0.079,21.25,109.4659,23.52,24.4,23.69,0,111.2,13.11,24.36,358.8
"2010-08-31 01:00:00",118501,4.442,34.78,0.859,0.18,21.25,109.4659,23.52,24.42,23.79,0,111.2,13.12,24.36,356.8
"2010-08-31 01:00:30",118502,4.402,34.54,0.648,0.211,21.25,109.4653,23.52,24.41,23.78,0,111.2,13.12,24.35,356.5
"2010-08-31 01:01:00",118503,4.542,35.18,0.804,0.153,21.27,109.4645,23.52,24.42,23.69,0,111.2,13.12,24.35,357.2
"2010-08-31 01:01:30",118504,4.473,34.71,0.882,0.154,21.27,109.4645,23.52,24.41,23.65,0,111.2,13.12,24.35,356.7
"2010-08-31 01:02:00",118505,4.578,35.55,0.955,0.129,21.28,109.4648,23.52,24.41,23.66,0,111.2,13.12,24.35,357.5
"2010-08-31 01:02:30",118506,4.346,34.11,0.94,0.199,21.3,109.4663,23.52,24.41,23.6,0,111.2,13.12,24.36,356.1
"2010-08-31 01:03:00",118507,3.953,32.7,1.444,0.321,21.31,109.4678,23.53,24.41,23.49,0,111.2,13.12,24.36,354.7
"2010-08-31 01:03:30",118508,4.182,33.83,1.204,0.324,21.31,109.4699,23.53,24.42,23.43,0,111.2,13.12,24.37,355.8
"2010-08-31 01:04:00",118509,4.03,34.1,1.411,0.206,21.26,109.4734,23.54,24.43,23.55,0,111.2,13.12,24.38,356.1
"2010-08-31 01:04:30",118510,3.986,33.89,1.246,0.366,21.25,109.4814,23.56,24.41,23.61,0,111.2,13.12,24.40,355.9
"2010-08-31 01:05:00",118511,4.168,33.04,1.044,0.216,21.23,109.4835,23.57,24.42,23.69,0,111.2,13.12,24.40,355.0
"2010-08-31 01:05:30",118512,3.951,31.85,1.178,0.197,21.27,109.4894,23.58,24.42,23.65,0,111.2,13.12,24.42,353.9
"2010-08-31 01:06:00",118513,3.478,29.07,0.891,0.115,21.27,109.4912,23.59,24.42,23.47,0,111.2,13.12,24.42,351.1
"2010-08-31 01:06:30",118514,3.539,27.61,1.607,0.258,21.29,109.4918,23.59,24.42,23.53,0,111.2,13.12,24.42,349.6
"2010-08-31 01:07:00",118515,3.593,27.98,1.39,0.16,21.26,109.4924,23.59,24.41,23.67,0,111.2,13.12,24.42,350.0
"2010-08-31 01:07:30",118516,3.72,27.11,1.571,0.151,21.26,109.4921,23.59,24.41,23.73,0,111.2,13.12,24.42,349.1
"2010-08-31 01:08:00",118517,3.871,27.41,1.554,0.179,21.32,109.4937,23.59,24.41,23.73,0,111.2,13.12,24.43,349.4
"2010-08-31 01:08:30",118518,4.304,26.9,1.963,0.277,21.38,109.4956,23.6,24.42,23.46,0,111.2,13.12,24.43,348.9
"2010-08-31 01:09:00",118519,4.434,24.65,1.515,0.385,21.41,109.4992,23.61,24.43,23.43,0,111.2,13.12,24.44,346.6
"2010-08-31 01:09:30",118520,4.121,23.49,2.087,0.408,21.48,109.5007,23.61,24.45,23.48,0,111.2,13.12,24.45,345.5
"2010-08-31 01:10:00",118521,4.633,19.71,1.457,0.252,21.56,109.5001,23.61,24.44,23.27,0,111.2,13.12,24.44,341.7
"2010-08-31 01:10:30",118522,4.595,18.29,1.496,0.27,21.58,109.5013,23.61,24.45,23.26,0,111.2,13.12,24.45,340.3
"2010-08-31 01:11:00",118523,4.707,17.87,2.731,0.675,21.54,109.5013,23.61,24.46,22.34,0,111.2,13.12,24.45,339.9
"2010-08-31 01:11:30",118524,4.516,24.58,4.048,0.413,21.53,109.5013,23.61,24.46,22.13,0,111.2,13.12,24.45,346.6
"2010-08-31 01:12:00",118525,3.956,18.59,5.948,0.784,21.57,109.5005,23.61,24.45,22.72,0,111.2,13.12,24.45,340.6
"2010-08-31 01:12:30",118526,4.437,21.42,3.747,0.513,21.59,109.4895,23.58,24.44,23.5,0,111.2,13.12,24.42,343.4
"2010-08-31 01:13:00",118527,2.749,13.21,4.92,0.679,21.62,109.4761,23.55,24.43,23.39,0,111.1,13.12,24.38,335.2
"2010-08-31 01:13:30",118528,4.548,22.02,3.976,0.881,21.57,109.4682,23.53,24.42,23.49,0,111.2,13.12,24.36,344.0
"2010-08-31 01:14:00",118529,4.936,23.57,0.907,0.187,21.52,109.4578,23.5,24.39,23.56,0,111.1,13.12,24.34,345.6
"2010-08-31 01:14:30",118530,5.193,22.22,2.322,0.455,21.54,109.4351,23.44,24.37,23.74,0,111.1,13.12,24.28,344.2
"2010-08-31 01:15:00",118531,5.274,22.45,2.65,0.368,21.5,109.434,23.44,24.33,23.17,0,111.1,13.12,24.27,344.5
"2010-08-31 01:15:30",118532,4.898,24.83,1.198,0.185,21.54,109.4239,23.41,24.32,22.01,0,111.1,13.12,24.25,346.8
"2010-08-31 01:16:00",118533,5.062,25.54,0.949,0.378,21.54,109.4129,23.39,24.3,22.57,0,111.1,13.12,24.22,347.5
"2010-08-31 01:16:30",118534,5.134,22.28,2.389,0.339,21.57,109.4107,23.38,24.31,21.33,0,111.1,13.13,24.21,344.3
"2010-08-31 01:17:00",118535,3.901,16.44,2.857,0.607,21.58,109.423,23.41,24.3,20.56,0,111.1,13.13,24.25,338.4
"2010-08-31 01:17:30",118536,4.46,17.38,1.816,0.614,21.56,109.4361,23.45,24.3,20.55,0,111.1,13.13,24.28,339.4
"2010-08-31 01:18:00",118537,4.467,15.79,2.624,0.307,21.58,109.4389,23.45,24.32,20.52,0,111.1,13.13,24.29,337.8
"2010-08-31 01:18:30",118538,3.995,12.73,2.891,0.705,21.53,109.4469,23.47,24.32,20.31,0,111.1,13.13,24.31,334.7
"2010-08-31 01:19:00",118539,4.936,11,1.943,0.459,21.59,109.4561,23.5,24.33,19.19,0,111.1,13.13,24.33,333.0
"2010-08-31 01:19:30",118540,4.369,8.8,3.455,0.774,21.59,109.4598,23.51,24.33,18.99,0,111.1,13.13,24.34,330.8
"2010-08-31 01:20:00",118541,3.232,10.64,3.407,0.379,21.56,109.4616,23.51,24.34,19.24,0,111.1,13.14,24.35,332.6
"2010-08-31 01:20:30",118542,4.274,7.714,2.627,0.753,21.6,109.4619,23.51,24.36,19.37,0,111.1,13.14,24.35,329.7
"2010-08-31 01:21:00",118543,3.319,7.754,3.873,0.558,21.57,109.4634,23.52,24.38,19.38,0,111.1,13.14,24.35,329.8
"2010-08-31 01:21:30",118544,2.87,11.98,3.914,0.383,21.5,109.4644,23.52,24.35,19.65,0,111.1,13.14,24.35,334.0
"2010-08-31 01:22:00",118545,2.834,9.26,3.017,0.443,21.51,109.4672,23.53,24.36,18.57,0,111.1,13.14,24.36,331.3
"2010-08-31 01:22:30",118546,3.094,6.718,2.777,0.451,21.51,109.4702,23.53,24.37,17.81,0,111.1,13.14,24.37,328.7
"2010-08-31 01:23:00",118547,2.739,5.989,3.622,0.232,21.55,109.4708,23.54,24.37,17.77,0,111.1,13.14,24.37,328.0
"2010-08-31 01:23:30",118548,2.784,4.479,3.062,0.228,21.55,109.4708,23.54,24.37,17.58,0,111.1,13.14,24.37,326.5
"2010-08-31 01:24:00",118549,2.928,0.196,2.147,0.208,21.56,109.4711,23.54,24.38,17.7,0,111.1,13.14,24.37,322.2
"2010-08-31 01:24:30",118550,2.753,0.931,1.693,0.247,21.55,109.4714,23.54,24.4,17.73,0,111.1,13.14,24.37,322.9
"2010-08-31 01:25:00",118551,2.364,1.065,2.989,0.171,21.56,109.4725,23.54,24.4,17.5,0,111.1,13.14,24.37,323.1
"2010-08-31 01:25:30",118552,2.874,356.4,2.526,0.345,21.52,109.4723,23.54,24.4,17.83,0,111.1,13.14,24.37,318.4
"2010-08-31 01:26:00",118553,2.363,1.496,4.108,0.427,21.39,109.4708,23.54,24.4,17.98,0,111.1,13.14,24.37,323.5
"2010-08-31 01:26:30",118554,3.292,353.4,8.38,1.297,21.34,109.4599,23.51,24.37,17.93,0,111.1,13.14,24.34,315.4
"2010-08-31 01:27:00",118555,5.23,336.1,1.795,0.441,21.26,109.4377,23.45,24.35,18.05,0,111.1,13.14,24.28,298.1
"2010-08-31 01:27:30",118556,4.657,340.3,8.04,1.179,21.23,109.4161,23.39,24.33,18.77,0,111.1,13.14,24.23,302.3
"2010-08-31 01:28:00",118557,3.287,356.6,6.456,1.325,21.33,109.4034,23.36,24.3,18.59,0,111.1,13.14,24.20,318.6
"2010-08-31 01:28:30",118558,3.834,352.7,5.036,0.883,21.31,109.3804,23.3,24.26,18.46,0,111.1,13.14,24.14,314.7
"2010-08-31 01:29:00",118559,5.295,340.1,6.543,0.574,21.34,109.3697,23.28,24.23,18.52,0,111.1,13.14,24.11,302.1
"2010-08-31 01:29:30",118560,4.784,344.3,13.54,1.875,21.32,109.3652,23.26,24.22,18.22,0,111.1,13.14,24.10,306.3
"2010-08-31 01:30:00",118561,6.042,331.5,0.979,0.099,21.38,109.3529,23.23,24.18,16.51,0,111.1,13.14,24.07,293.5
"2010-08-31 01:30:30",118562,5.753,329.5,0.814,0.117,21.55,109.3755,23.29,24.18,16.45,0,111,13.14,24.12,291.5
"2010-08-31 01:31:00",118563,5.9,331.2,1.433,0.111,21.48,109.3919,23.33,24.19,16.46,0,111,13.14,24.17,293.2
"2010-08-31 01:31:30",118564,6.077,333.1,1.057,0.096,21.39,109.3958,23.34,24.19,16.36,0,111.1,13.14,24.18,295.1
"2010-08-31 01:32:00",118565,5.985,331.3,1.24,0.134,21.41,109.3971,23.35,24.2,16.34,0,111,13.14,24.18,293.3
"2010-08-31 01:32:30",118566,5.896,330.8,0.928,0.105,21.41,109.3982,23.35,24.2,16.7,0,111,13.14,24.18,292.8
"2010-08-31 01:33:00",118567,5.843,329.9,1.483,0.139,21.38,109.3989,23.35,24.2,16.51,0,111,13.14,24.18,291.9
"2010-08-31 01:33:30",118568,5.913,333,2.201,0.201,21.47,109.4006,23.35,24.2,16.96,0,111,13.15,24.19,295.0
"2010-08-31 01:34:00",118569,5.937,331.9,1.435,0.355,21.41,109.4107,23.38,24.23,16.66,0,111,13.15,24.21,293.9
"2010-08-31 01:34:30",118570,6.501,337,2.233,0.177,21.26,109.4062,23.37,24.23,15.93,0,111,13.15,24.20,299.0
"2010-08-31 01:35:00",118571,7.036,339.7,1.666,0.132,21.22,109.406,23.37,24.21,16.1,0,111,13.15,24.20,301.7
"2010-08-31 01:35:30",118572,7.57,334.6,1.258,0.308,21.22,109.3897,23.33,24.2,15.8,0,111,13.15,24.16,296.6
"2010-08-31 01:36:00",118573,7.651,334.2,0.961,0.127,21.18,109.3735,23.29,24.19,15.75,0,111,13.15,24.12,296.2
"2010-08-31 01:36:30",118574,7.506,333.9,1.85,0.14,21.19,109.3726,23.28,24.18,15.61,0,111,13.15,24.12,295.9
"2010-08-31 01:37:00",118575,7.214,336.2,2.795,0.185,21.18,109.3673,23.27,24.14,15.63,0,111,13.15,24.10,298.2
"2010-08-31 01:37:30",118576,7.242,338,1.067,0.116,21.23,109.3501,23.23,24.14,15.67,0,111,13.15,24.06,300.0
"2010-08-31 01:38:00",118577,7.315,335.9,2.158,0.281,21.16,109.3397,23.2,24.13,15.74,0,111,13.15,24.03,297.9
"2010-08-31 01:38:30",118578,7.394,334,2.057,0.134,21.1,109.3378,23.19,24.11,15.77,0,111,13.15,24.03,296.0
"2010-08-31 01:39:00",118579,7.449,331.4,4.155,0.164,21.16,109.317,23.14,24.07,15.8,0,111,13.15,23.97,293.4
"2010-08-31 01:39:30",118580,7.38,338.4,2.968,0.272,21.07,109.3063,23.11,24.06,15.93,0,111,13.15,23.95,300.4
"2010-08-31 01:40:00",118581,7.477,332.2,2.231,0.397,21.07,109.3061,23.11,24.04,16.04,0,111,13.15,23.94,294.2
"2010-08-31 01:40:30",118582,7.568,334.3,2.268,0.291,21.04,109.2847,23.06,24.02,16.13,0,111,13.15,23.89,296.3
"2010-08-31 01:41:00",118583,7.748,331.3,2.292,0.184,21.06,109.2751,23.03,23.99,16.14,0,111,13.15,23.86,293.3
"2010-08-31 01:41:30",118584,7.688,330,1.59,0.188,21.13,109.274,23.03,23.97,16,0,111,13.15,23.86,292.0
"2010-08-31 01:42:00",118585,7.7,329.6,1.069,0.107,21.09,109.2688,23.02,23.94,15.94,0,111,13.15,23.85,291.6
"2010-08-31 01:42:30",118586,7.891,329.6,0.898,0.171,21.15,109.2706,23.02,23.93,15.85,0,111,13.15,23.85,291.6
"2010-08-31 01:43:00",118587,8.19,328.5,0.855,0.106,21.28,109.2674,23.01,23.93,15.68,0,111,13.15,23.84,290.5
"2010-08-31 01:43:30",118588,8.05,327.4,0.739,0.191,21.36,109.2789,23.04,23.93,15.62,0,111,13.16,23.87,289.4
"2010-08-31 01:44:00",118589,7.39,327.3,0.815,0.111,21.37,109.2861,23.06,23.95,15.72,0,111,13.16,23.89,289.3
"2010-08-31 01:44:30",118590,7.147,328.8,0.848,0.123,21.4,109.3081,23.12,23.96,15.7,0,111,13.15,23.95,290.8
"2010-08-31 01:45:00",118591,7.153,328.7,0.814,0.091,21.37,109.3304,23.17,23.97,15.69,0,111,13.15,24.01,290.7
"2010-08-31 01:45:30",118592,6.96,328.6,0.687,0.114,21.41,109.3319,23.18,23.99,15.72,0,111,13.15,24.01,290.6
"2010-08-31 01:46:00",118593,6.8,328.1,0.835,0.129,21.34,109.3373,23.19,24,15.74,0,111,13.15,24.03,290.1
"2010-08-31 01:46:30",118594,6.628,327.7,1.027,0.131,21.42,109.3567,23.24,24.03,15.74,0,111,13.15,24.08,289.7
"2010-08-31 01:47:00",118595,6.407,330,3.69,0.222,21.47,109.3668,23.27,24.04,15.91,0,111,13.15,24.10,292.0
"2010-08-31 01:47:30",118596,5.716,330.2,1.729,0.22,21.49,109.3763,23.29,24.08,16.31,0,111,13.15,24.13,292.2
"2010-08-31 01:48:00",118597,5.598,331.5,0.968,0.112,21.51,109.4006,23.35,24.11,16.27,0,111,13.15,24.19,293.5
"2010-08-31 01:48:30",118598,5.829,330.2,1.332,0.272,21.45,109.4076,23.37,24.13,15.7,0,111,13.15,24.21,292.2